Flag for U.S.A. Weather past 2 weeks in Fullerton, California, U.S.A.

Now
64 °F

Sunny.


Feels Like: 64 °F
Forecast: 50 / 75 °F
Wind: No wind

Location: Fullerton Municipal Airport

Current Time: Feb 1, 2015 at 10:17:02 AM

Latest Report: Feb 1, 2015 at 9:53 AM


Visibility: 8 mi

Pressure: 30.11 "Hg

Humidity: 68%

Dew point: 53 °F

Location of FullertonLocation

Historic Weather in Fullerton — Graph

°F

Fullerton temperature yesterday

Maximum temperature yesterday: 72 °F (at 2:53 PM)
Minimum temperature yesterday: 56 °F (at 11:53 PM)
Average temperature yesterday: 62 °F

Past Weeks' High & Low Weather Summary

 TemperatureHumidityPressure
High84 °F (Jan 24, 2:53 PM)93% (Jan 20, 2:53 AM)30.24 "Hg (Jan 20, 2:53 AM)
Low46 °F (Jan 23, 6:53 AM)9% (Jan 23, 2:53 PM)29.82 "Hg (Jan 31, 3:53 AM)
Average63 °F54%30.05 "Hg
* Reported Jan 17 8:53 AM — Feb 1 8:53 AM, Fullerton, Weather by CustomWeather, © 2014

Note: Actual official high and low records may vary slightly from our data, if they occured in-between our weather recording intervals... More about our weather records

Advertising

Fullerton weather history for previous 24 hours

 ConditionsComfort  
Time TempWeatherWind HumidityBarometerVisibility
8:53 AM
Feb 1
60 °FSunny.3 mph69%30.10 "Hg10 mi
7:53 AM53 °FSunny.5 mph77%30.09 "Hg10 mi
6:53 AM50 °FSunny.No wind83%30.06 "Hg7 mi
5:53 AM50 °FClear.No wind86%30.04 "Hg8 mi
4:53 AM51 °FClear.No wind86%30.02 "Hg7 mi
3:53 AM52 °FClear.3 mph86%30.01 "Hg8 mi
2:53 AM52 °FFog.No wind86%30.00 "Hg6 mi
1:53 AM55 °FClear.No wind83%30.01 "Hg8 mi
12:53 AM54 °FClear.3 mph86%29.99 "Hg7 mi
11:53 PM
Jan 31
56 °FClear.3 mph84%29.99 "Hg8 mi
10:53 PM57 °FClear.No wind78%29.98 "Hg8 mi
9:53 PM59 °FClear.No wind78%29.97 "Hg9 mi
8:53 PM60 °FClear.No wind75%29.96 "Hg9 mi
7:53 PM61 °FClear.No wind72%29.95 "Hg10 mi
6:53 PM63 °FClear.3 mph68%29.93 "Hg10 mi
5:53 PM64 °FClear.5 mph68%29.90 "Hg10 mi
4:53 PM67 °FSunny.8 mph61%29.87 "Hg10 mi
3:53 PM71 °FPartly sunny.7 mph51%29.86 "Hg10 mi
2:53 PM72 °FSunny.No wind46%29.85 "Hg10 mi
1:53 PM71 °FSunny.3 mph44%29.86 "Hg10 mi
12:53 PM69 °FSunny.3 mph49%29.87 "Hg10 mi
11:53 AM68 °FSunny.3 mph57%29.90 "Hg10 mi
10:53 AM64 °FSunny.No wind65%29.91 "Hg10 mi
Weather by CustomWeather, © 2014

See weather overviewHow to use our weather pages